Location: Caltech
(34.1382°N, 118.1253°W)
Time: 12:10:35
(UTC-08:00)

AO-7 - Pass Details

Date: 21 March 2018
Orbit: 1439 x 1459 km, 101.7° (Epoch: 16 November)

Event Time Altitude Azimuth Distance (km) Brightness Sun altitude
Rises 04:33:53 0° 16° (NNE) 4,541 ? -29.3°
Reaches altitude 10° 04:36:40 10° 16° (NNE) 3,559 ? -28.7°
Maximum altitude 04:44:59 89° 291° (WNW) 1,444 ? -27.1°
Enters shadow 04:49:57 28° 199° (SSW) 2,425 ? -26.2°
